Terminal Aerodrome Forecast
Issued by NWS Louisville, KY

Home | Current Version | Previous Version | Text Only | Print | Product List | Glossary On
Versions: 1 2 3 4 5 6 7 8 9 10 11 12 13 14 15 16 17 18
000
FTUS43 KLMK 181100
TAFBWG
TAF
KBWG 181121Z 1812/1912 25004KT P6SM OVC007
     FM181500 27006KT P6SM BKN015
     FM181600 26007KT P6SM BKN022
     FM181800 26008KT P6SM BKN035
     FM190100 23004KT P6SM OVC030=

USA.gov is the U.S. government's official web portal to all federal, state and local government web resources and services.